This demonstration page uses our WeatherBlox Daily Observations layout. Learn more.

Left ArrowRight Arrow

38.80484, -77.04692

Hourly Observations for May 16, 2021

Temp ( °F °C ) Dew Point ( °F °C ) Humidity (%) Winds ( mph kmh ) Pressure ( in mb ) Visibility ( mi km ) Precip ( " mm )
12:52 am 00:52 Partly Cloudy 60 15.6 47 8.3 62 62 S 8 13 30.24 1024 10 16 N/A
1:52 am 01:52 Mostly Cloudy 58 14.4 47 8.3 67 67 SSW 7 11 30.24 1024 10 16 N/A
2:52 am 02:52 Mostly Cloudy 58 14.4 47 8.3 67 67 S 5 7 30.23 1024 10 16 N/A
3:52 am 03:52 Mostly Cloudy 56 13.3 45 7.2 67 67 SSW 5 7 30.24 1024 10 16 N/A
4:52 am 04:52 Mostly Cloudy 57 13.9 45 7.2 64 64 N N/A 30.25 1024 10 16 N/A
5:52 am 05:52 Mostly Cloudy 54 12.2 46 7.8 75 75 SSE 5 7 30.25 1025 10 16 N/A
6:52 am 06:52 Mostly Cloudy 55 12.8 44 6.7 67 67 S 7 11 30.27 1025 10 16 N/A
7:52 am 07:52 Cloudy 58 14.4 44 6.7 60 60 SSW 6 9 30.28 1025 10 16 N/A
8:52 am 08:52 Cloudy 59 15 43 6.1 56 56 SSW 6 9 30.29 1026 10 16 N/A
9:52 am 09:52 Cloudy 61 16.1 46 7.8 58 58 S 5 7 30.30 1026 10 16 N/A
10:52 am 10:52 Mostly Cloudy 65 18.3 48 8.9 54 54 SSE 10 17 30.29 1026 10 16 N/A
11:52 am 11:52 Mostly Cloudy 70 21.1 47 8.3 44 44 SSE 12 19 30.28 1025 10 16 N/A
12:52 pm 12:52 Mostly Cloudy 72 22.2 46 7.8 40 40 S 10 17 30.27 1025 10 16 N/A
1:52 pm 13:52 Cloudy 71 21.7 46 7.8 41 41 S 9 15 30.26 1025 10 16 N/A
2:52 pm 14:52 Mostly Cloudy 71 21.7 47 8.3 42 42 SSW 8 13 30.25 1024 10 16 N/A
3:52 pm 15:52 Cloudy 63 17.2 50 10 63 63 W 10 17 30.26 1025 10 16 0.00 0.00
4:52 pm 16:52 Cloudy with Light Rain 63 17.2 51 10.6 65 65 NNE 8 13 30.27 1025 10 16 0.00 0.00
5:52 pm 17:52 Cloudy with Light Rain 62 16.7 51 10.6 67 67 N 10 17 30.28 1025 10 16 0.00 0.00
6:52 pm 18:52 Cloudy 63 17.2 49 9.4 60 60 N 10 17 30.27 1025 10 16 0.00 0.00
7:52 pm 19:52 Cloudy 62 16.7 46 7.8 56 56 N 9 15 30.26 1025 10 16 N/A
8:52 pm 20:52 Cloudy 62 16.7 47 8.3 58 58 NE 5 7 30.25 1025 10 16 N/A
9:52 pm 21:52 Cloudy 61 16.1 48 8.9 63 63 ENE 5 7 30.27 1025 10 16 N/A
10:52 pm 22:52 Cloudy 60 15.6 48 8.9 65 65 ENE 3 6 30.27 1025 10 16 N/A
11:52 pm 23:52 Cloudy 61 16.1 49 9.4 65 65 N N/A 30.28 1025 10 16 N/A

Powered by AerisWeather